Location: Gniazdowice
(50.2124°N, 20.2673°E)
Time: 15:50:00
(UTC+00:00)

Cosmos 2278 - Pass Details

Date: 23 May 2024
Orbit: 837 x 853 km, 71.1° (Epoch: 12 June)

Event Time Altitude Azimuth Distance (km) Brightness Sun altitude
Rises 00:33:56 0° 327° (NNW) 3,432 7.3 -14.5°
Reaches altitude 10° 00:36:27 10° 323° (NW) 2,493 6.5 -14.3°
Maximum altitude 00:41:57 50° 249° (WSW) 1,076 3.9 -13.9°
Enters shadow 00:46:52 13° 177° (S) 2,275 5.5 -13.4°
